Overview Statistics Trail Chart Weather Telemetry Raw packets
 

This is the latest recevied weather packets stored in our database for station/object DF1GD-10. If no packets are shown the sender has not sent any weather packets the latest 10 day(s).

<< 29 30 31 32 33 34 35 >>
Time Temp. Humidity Pressure Rain* Wind** Luminosity Snow
1788004326 21.67° C 32% 1015.2 hPa - - - -
1788003425 21.11° C 34% 1015.1 hPa - - - -
1788002525 21.11° C 35% 1015.4 hPa - - - -
1788001625 22.78° C 33% 1015.5 hPa - - - -
1788000725 21.11° C 34% 1015.6 hPa - - - -
1787999825 21.67° C 33% 1015.8 hPa - - - -
1787998925 25° C 28% 1016 hPa - - - -
1787998025 21.11° C 38% 1015.9 hPa - - - -
1787997124 20.56° C 37% 1016 hPa - - - -
1787996224 19.44° C 42% 1016.2 hPa - - - -
1787995324 18.89° C 43% 1016.1 hPa - - - -
1787994424 18.89° C 44% 1016.3 hPa - - - -
1787993524 18.33° C 45% 1016.2 hPa - - - -
1787992634 17.78° C 47% 1016.2 hPa - - - -
1787991724 17.22° C 48% 1016.2 hPa - - - -
1787990823 17.22° C 49% 1016.3 hPa - - - -
1787989923 16.67° C 52% 1016.3 hPa - - - -
1787989023 16.11° C 54% 1016.5 hPa - - - -
1787988123 15.56° C 55% 1016.6 hPa - - - -
1787987223 15.56° C 56% 1016.6 hPa - - - -
1787986323 15° C 58% 1016.5 hPa - - - -
1787985423 15° C 58% 1016.6 hPa - - - -
1787984522 14.44° C 60% 1016.7 hPa - - - -
1787983622 14.44° C 60% 1016.6 hPa - - - -
1787982722 13.89° C 61% 1016.5 hPa - - - -

* Rain since midnight (hover to see other rain measurements)
** Current wind speed in m/s (hover to see current wind gust speed)